DECAYED

SL-4 R/B, 58930 (Decayed)

Orbit data source: Space-Track

SL-4 R/B, 58930 was space debris in LEO originally from a launch on Fri, 09 Feb 2024 UTC launched from the Plesetsk Missile And Space Complex (PKMTR). Debris objects in space refer to the collection of defunct objects orbiting the Earth. Examples of debris include non-operational satellites, rocket bodies, and fragments generated from explosions, collisions, or faulty payload assembly.

Not visible in the next 10 days
SL-4 R/B details
Identifier
58930, 2024-026B
Orbit
Decayed
Last TLE update6 months ago
Origin
Flag of CISRVSN RF (CIS)
ManufacturerTsSKB-Progress
MissionDecayed spacecraft
Bus & MotorBLOK-I, RD-0110
MassWet unknown, 2,350 kg dry
Launch date (UTC)
2024-02-09 (10 months ago)
Launch vehicleUnknown
Launch site
Plesetsk Missile And Space Complex (PKMTR)
Object type
Payload
Rocket body
Debris
Shape & HBRUnknown
Radar Cross SectionLarge (>1 m²)

Expand to show TLE details & history

TLE from 6 months ago
0 SL-4 R/B
1 58930U 24027B   24162.59689719  .31737778  23207-5  12376-3 0  9993
2 58930  96.7292  60.1188 0011273 241.5955 203.7505 16.57784045 19392
Epoch: 2024-06-10T14:19Z
Definitive object data (Epoch: 2024-06-10T14:19:31.917Z)
Latitude81.83811°
Longitude-109.07122°
Altitude139.148 km
Speed7.826 km/s
True Right ascension00h 20m 58s
True Declination81° 47' 06"
Sunlit
Object was in daylight at TLE epoch
Visualization TLE readout
Latitude-68.30346°
Longitude1.42084°
Altitude9,649.381 km
Speed4.637 km/s
Apparent Right ascension04h 51m 48s
Apparent Declination-69° 20' 39"
Sunlit
Object is in daylight
Visualization observer readout
Local Sidereal Time13:10:28
Azimuth206.227° SW
Elevation-48.965°
Doppler factor1
Orbital elements
Apogee altitude122.994 km
Perigee altitude108.353 km
Semi-major axis6,493.81 km
Eccentricity0.0011273
Inclination96.7292°
RAAN60.1188°
Arg. of periapsis241.5955°
True anomaly203.69854°
Mean anomaly203.7505°
Eccentric anomaly203.72451°
Mean motion4.14757 °/min
BSTAR0.00012376
Orbital period86.8 mins
Loading maneuver chart data...
Loading historical data...
Loading historical data...
Loading historical data...
Loading historical data...
Loading historical data...
Loading historical data...
Loading historical data...
Other satellites on launch #26 in the year 2024 (2024-02-09 UTC)

SL-4 R/B Visibility forecast

Observer location: undefined°, undefined

This satellite is decayed
Span
Click to sort rows by Start time (UTC) header in descending order
Start Az.
Max El. time (UTC)
Max El. Az.
Max El.
End time (UTC)
End Az.
|